Time,TemperatureF,DewpointF,PressureIn,WindDirection,WindDirectionDegrees,WindSpeedMPH,WindSpeedGustMPH,Humidity,HourlyPrecipIn,Conditions,Clouds,dailyrainin,SoftwareType,DateUTC
2013-07-10 00:00:00,80.7,70.0,30.06,WNW,301,0.0,0.0,70,0.00,,CLR,0.00,VWS V14.01,2013-07-10 05:00:00,
2013-07-10 00:01:00,80.2,69.9,30.06,WNW,301,0.0,0.0,71,0.00,,CLR,0.00,VWS V14.01,2013-07-10 05:01:00,
2013-07-10 00:06:00,80.2,70.4,30.06,WNW,301,0.0,0.0,72,0.00,,CLR,0.00,VWS V14.01,2013-07-10 05:06:00,
2013-07-10 00:10:00,80.4,69.7,30.06,WNW,301,0.0,0.0,70,0.00,,CLR,0.00,VWS V14.01,2013-07-10 05:10:00,
2013-07-10 00:11:00,80.0,70.2,30.06,WNW,301,0.0,0.0,72,0.00,,CLR,0.00,VWS V14.01,2013-07-10 05:11:00,
2013-07-10 00:16:00,79.8,70.4,30.07,WNW,301,0.0,0.0,73,0.00,,CLR,0.00,VWS V14.01,2013-07-10 05:16:00,
2013-07-10 00:20:00,80.0,70.2,30.06,WNW,301,0.0,0.0,72,0.00,,CLR,0.00,VWS V14.01,2013-07-10 05:20:00,
2013-07-10 00:21:00,79.8,70.4,30.07,WNW,301,0.0,0.0,73,0.00,,CLR,0.00,VWS V14.01,2013-07-10 05:21:00,
2013-07-10 00:30:00,79.8,70.4,30.07,WNW,301,0.0,0.0,73,0.00,,CLR,0.00,VWS V14.01,2013-07-10 05:30:00,
2013-07-10 00:38:00,79.4,70.8,30.07,WNW,301,0.0,0.0,75,0.00,,CLR,0.00,VWS V14.01,2013-07-10 05:38:00,
2013-07-10 00:40:00,79.6,70.6,30.07,WNW,301,0.0,0.0,74,0.00,,CLR,0.00,VWS V14.01,2013-07-10 05:40:00,
2013-07-10 00:43:00,79.3,70.7,30.07,WNW,301,0.0,0.0,75,0.00,,CLR,0.00,VWS V14.01,2013-07-10 05:43:00,
2013-07-10 00:49:00,79.1,70.9,30.07,WNW,301,0.0,0.0,76,0.00,,CLR,0.00,VWS V14.01,2013-07-10 05:49:00,
2013-07-10 00:50:00,79.4,70.4,30.07,WNW,301,0.0,0.0,74,0.00,,CLR,0.00,VWS V14.01,2013-07-10 05:50:00,
2013-07-10 00:54:00,78.9,70.7,30.07,WNW,301,0.0,0.0,76,0.00,,CLR,0.00,VWS V14.01,2013-07-10 05:54:00,
2013-07-10 00:59:00,78.9,70.7,30.07,WNW,301,0.0,0.0,76,0.00,,CLR,0.00,VWS V14.01,2013-07-10 05:59:00,
2013-07-10 01:00:00,79.1,70.9,30.07,WNW,301,0.0,0.0,76,0.00,,CLR,0.00,VWS V14.01,2013-07-10 06:00:00,
2013-07-10 01:04:00,78.7,70.9,30.07,WNW,301,0.0,0.0,77,0.00,,CLR,0.00,VWS V14.01,2013-07-10 06:04:00,
2013-07-10 01:09:00,78.7,70.9,30.07,WNW,301,0.0,0.0,77,0.00,,CLR,0.00,VWS V14.01,2013-07-10 06:09:00,
2013-07-10 01:10:00,78.9,70.7,30.07,WNW,301,0.0,0.0,76,0.00,,CLR,0.00,VWS V14.01,2013-07-10 06:10:00,
2013-07-10 01:14:00,78.5,70.7,30.07,WNW,301,0.0,0.0,77,0.00,,CLR,0.00,VWS V14.01,2013-07-10 06:14:00,
2013-07-10 01:19:00,78.3,70.5,30.07,WNW,301,0.0,0.0,77,0.00,,CLR,0.00,VWS V14.01,2013-07-10 06:19:00,
2013-07-10 01:20:00,78.7,70.9,30.07,WNW,301,0.0,0.0,77,0.00,,CLR,0.00,VWS V14.01,2013-07-10 06:20:00,
2013-07-10 01:24:00,78.3,70.5,30.07,WNW,301,0.0,0.0,77,0.00,,CLR,0.00,VWS V14.01,2013-07-10 06:24:00,
2013-07-10 01:29:00,78.1,70.7,30.07,WNW,301,0.0,0.0,78,0.00,,CLR,0.00,VWS V14.01,2013-07-10 06:29:00,
2013-07-10 01:30:00,78.5,71.1,30.07,WNW,301,0.0,0.0,78,0.00,,CLR,0.00,VWS V14.01,2013-07-10 06:30:00,
2013-07-10 01:34:00,78.0,70.6,30.07,WNW,301,0.0,0.0,78,0.00,,CLR,0.00,VWS V14.01,2013-07-10 06:34:00,
2013-07-10 01:39:00,78.0,71.0,30.07,WNW,302,0.0,0.0,79,0.00,,CLR,0.00,VWS V14.01,2013-07-10 06:39:00,
2013-07-10 01:40:00,78.1,70.7,30.07,WNW,301,0.0,0.0,78,0.00,,CLR,0.00,VWS V14.01,2013-07-10 06:40:00,
2013-07-10 01:44:00,77.8,70.8,30.07,WNW,302,0.0,0.0,79,0.00,,CLR,0.00,VWS V14.01,2013-07-10 06:44:00,
2013-07-10 01:49:00,77.8,70.8,30.07,WNW,302,0.0,0.0,79,0.00,,CLR,0.00,VWS V14.01,2013-07-10 06:49:00,
2013-07-10 01:50:00,78.0,71.0,30.07,WNW,302,0.0,0.0,79,0.00,,CLR,0.00,VWS V14.01,2013-07-10 06:50:00,
2013-07-10 01:54:00,77.6,70.9,30.07,WNW,302,0.0,0.0,80,0.00,,CLR,0.00,VWS V14.01,2013-07-10 06:54:00,
2013-07-10 01:59:00,77.4,71.1,30.07,WNW,302,0.0,0.0,81,0.00,,CLR,0.00,VWS V14.01,2013-07-10 06:59:00,
2013-07-10 02:00:00,77.8,70.8,30.07,WNW,302,0.0,0.0,79,0.00,,CLR,0.00,VWS V14.01,2013-07-10 07:00:00,
2013-07-10 02:04:00,77.2,70.9,30.08,WNW,302,0.0,0.0,81,0.00,,CLR,0.00,VWS V14.01,2013-07-10 07:04:00,
2013-07-10 02:09:00,77.2,71.3,30.08,WNW,302,0.0,0.0,82,0.00,,CLR,0.00,VWS V14.01,2013-07-10 07:09:00,
2013-07-10 02:10:00,77.4,70.8,30.07,WNW,302,0.0,0.0,80,0.00,,CLR,0.00,VWS V14.01,2013-07-10 07:10:00,
2013-07-10 02:14:00,77.1,71.2,30.08,WNW,302,0.0,0.0,82,0.00,,CLR,0.00,VWS V14.01,2013-07-10 07:14:00,
2013-07-10 02:19:00,76.9,71.0,30.07,WNW,302,0.0,0.0,82,0.00,,CLR,0.00,VWS V14.01,2013-07-10 07:19:00,
2013-07-10 02:20:00,77.2,70.9,30.08,WNW,302,0.0,0.0,81,0.00,,CLR,0.00,VWS V14.01,2013-07-10 07:20:00,
2013-07-10 02:24:00,76.9,71.3,30.07,WNW,302,0.0,0.0,83,0.00,,CLR,0.00,VWS V14.01,2013-07-10 07:24:00,
2013-07-10 02:29:00,76.7,71.2,30.07,WNW,302,0.0,0.0,83,0.00,,CLR,0.00,VWS V14.01,2013-07-10 07:29:00,
2013-07-10 02:30:00,77.1,71.2,30.07,WNW,302,0.0,0.0,82,0.00,,CLR,0.00,VWS V14.01,2013-07-10 07:30:00,
2013-07-10 02:34:00,76.5,71.0,30.07,WNW,302,0.0,0.0,83,0.00,,CLR,0.00,VWS V14.01,2013-07-10 07:34:00,
2013-07-10 02:39:00,76.5,71.3,30.07,WNW,302,0.0,0.0,84,0.00,,CLR,0.00,VWS V14.01,2013-07-10 07:39:00,
2013-07-10 02:40:00,76.7,71.2,30.07,WNW,302,0.0,0.0,83,0.00,,CLR,0.00,VWS V14.01,2013-07-10 07:40:00,
2013-07-10 02:44:00,76.3,71.1,30.07,WNW,302,0.0,0.0,84,0.00,,CLR,0.00,VWS V14.01,2013-07-10 07:44:00,
2013-07-10 02:49:00,76.2,71.0,30.07,WNW,302,0.0,0.0,84,0.00,,CLR,0.00,VWS V14.01,2013-07-10 07:49:00,
2013-07-10 02:50:00,76.5,71.0,30.07,WNW,302,0.0,0.0,83,0.00,,CLR,0.00,VWS V14.01,2013-07-10 07:50:00,
2013-07-10 02:54:00,76.0,70.8,30.07,WNW,302,0.0,0.0,84,0.00,,CLR,0.00,VWS V14.01,2013-07-10 07:54:00,
2013-07-10 02:59:00,76.0,71.2,30.07,WNW,302,0.0,0.0,85,0.00,,CLR,0.00,VWS V14.01,2013-07-10 07:59:00,
2013-07-10 03:00:00,76.3,71.1,30.07,WNW,302,0.0,0.0,84,0.00,,CLR,0.00,VWS V14.01,2013-07-10 08:00:00,
2013-07-10 03:04:00,76.0,71.2,30.07,WNW,302,0.0,0.0,85,0.00,,CLR,0.00,VWS V14.01,2013-07-10 08:04:00,
2013-07-10 03:09:00,76.0,71.5,30.07,WNW,302,0.0,0.0,86,0.00,,CLR,0.00,VWS V14.01,2013-07-10 08:09:00,
2013-07-10 03:10:00,76.0,71.2,30.07,WNW,302,0.0,0.0,85,0.00,,CLR,0.00,VWS V14.01,2013-07-10 08:10:00,
2013-07-10 03:14:00,76.0,71.5,30.07,WNW,302,0.0,0.0,86,0.00,,CLR,0.00,VWS V14.01,2013-07-10 08:14:00,
2013-07-10 03:19:00,76.0,71.5,30.07,WNW,302,0.0,0.0,86,0.00,,CLR,0.00,VWS V14.01,2013-07-10 08:19:00,
2013-07-10 03:20:00,76.0,71.5,30.07,WNW,302,0.0,0.0,86,0.00,,CLR,0.00,VWS V14.01,2013-07-10 08:20:00,
2013-07-10 03:24:00,76.0,71.5,30.07,WNW,302,0.0,0.0,86,0.00,,BKN013,0.00,VWS V14.01,2013-07-10 08:24:00,
2013-07-10 03:29:00,76.0,71.5,30.07,WNW,302,0.0,0.0,86,0.00,,BKN013,0.00,VWS V14.01,2013-07-10 08:29:00,
2013-07-10 03:30:00,76.0,71.5,30.07,WNW,302,0.0,0.0,86,0.00,,CLR,0.00,VWS V14.01,2013-07-10 08:30:00,
2013-07-10 03:34:00,76.0,71.5,30.06,WNW,302,0.0,0.0,86,0.00,,BKN013,0.00,VWS V14.01,2013-07-10 08:34:00,
2013-07-10 03:39:00,76.0,71.9,30.06,WNW,302,0.0,0.0,87,0.00,,BKN013,0.00,VWS V14.01,2013-07-10 08:39:00,
2013-07-10 03:40:00,76.0,71.5,30.07,WNW,302,0.0,0.0,86,0.00,,CLR,0.00,VWS V14.01,2013-07-10 08:40:00,
2013-07-10 03:44:00,76.0,71.9,30.06,WNW,302,0.0,0.0,87,0.00,,BKN013,0.00,VWS V14.01,2013-07-10 08:44:00,
2013-07-10 03:49:00,75.8,71.7,30.07,WNW,302,0.0,0.0,87,0.00,,BKN013,0.00,VWS V14.01,2013-07-10 08:49:00,
2013-07-10 03:50:00,76.0,71.9,30.06,WNW,302,0.0,0.0,87,0.00,,CLR,0.00,VWS V14.01,2013-07-10 08:50:00,
2013-07-10 03:54:00,75.8,71.7,30.07,WNW,302,0.0,0.0,87,0.00,,SCT013,0.00,VWS V14.01,2013-07-10 08:54:00,
2013-07-10 03:59:00,75.6,71.5,30.07,WNW,302,0.0,0.0,87,0.00,,SCT013,0.00,VWS V14.01,2013-07-10 08:59:00,
2013-07-10 04:00:00,75.8,71.7,30.07,WNW,302,0.0,0.0,87,0.00,,CLR,0.00,VWS V14.01,2013-07-10 09:00:00,
2013-07-10 04:04:00,75.5,71.4,30.07,WNW,302,0.0,0.0,87,0.00,,CLR,0.00,VWS V14.01,2013-07-10 09:04:00,
2013-07-10 04:09:00,75.3,71.2,30.07,WNW,302,0.0,0.0,87,0.00,,CLR,0.00,VWS V14.01,2013-07-10 09:09:00,
2013-07-10 04:10:00,75.6,71.5,30.07,WNW,302,0.0,0.0,87,0.00,,CLR,0.00,VWS V14.01,2013-07-10 09:10:00,
2013-07-10 04:14:00,75.1,71.0,30.07,WNW,302,0.0,0.0,87,0.00,,CLR,0.00,VWS V14.01,2013-07-10 09:14:00,
2013-07-10 04:19:00,75.1,71.0,30.06,WNW,302,0.0,0.0,87,0.00,,CLR,0.00,VWS V14.01,2013-07-10 09:19:00,
2013-07-10 04:20:00,75.5,71.4,30.07,WNW,302,0.0,0.0,87,0.00,,CLR,0.00,VWS V14.01,2013-07-10 09:20:00,
2013-07-10 04:24:00,74.9,71.1,30.06,WNW,302,0.0,0.0,88,0.00,,CLR,0.00,VWS V14.01,2013-07-10 09:24:00,
2013-07-10 04:29:00,74.9,71.1,30.06,WNW,302,0.0,0.0,88,0.00,,CLR,0.00,VWS V14.01,2013-07-10 09:29:00,
2013-07-10 04:30:00,75.1,71.3,30.06,WNW,302,0.0,0.0,88,0.00,,CLR,0.00,VWS V14.01,2013-07-10 09:30:00,
2013-07-10 04:34:00,74.9,71.1,30.07,WNW,302,0.0,0.0,88,0.00,,CLR,0.00,VWS V14.01,2013-07-10 09:34:00,
2013-07-10 04:39:00,74.8,71.3,30.07,WNW,302,0.0,0.0,89,0.00,,CLR,0.00,VWS V14.01,2013-07-10 09:39:00,
2013-07-10 04:40:00,74.9,71.1,30.06,WNW,302,0.0,0.0,88,0.00,,CLR,0.00,VWS V14.01,2013-07-10 09:40:00,
2013-07-10 04:44:00,74.8,71.3,30.07,WNW,302,0.0,0.0,89,0.00,,CLR,0.00,VWS V14.01,2013-07-10 09:44:00,
2013-07-10 04:49:00,74.8,71.3,30.07,WNW,302,0.0,0.0,89,0.00,,CLR,0.00,VWS V14.01,2013-07-10 09:49:00,
2013-07-10 04:50:00,74.8,71.0,30.07,WNW,302,0.0,0.0,88,0.00,,CLR,0.00,VWS V14.01,2013-07-10 09:50:00,
2013-07-10 04:54:00,74.6,71.2,30.07,WNW,302,0.0,0.0,89,0.00,,CLR,0.00,VWS V14.01,2013-07-10 09:54:00,
2013-07-10 04:59:00,74.6,71.2,30.07,WNW,302,0.0,0.0,89,0.00,,CLR,0.00,VWS V14.01,2013-07-10 09:59:00,
2013-07-10 05:00:00,74.8,71.3,30.07,WNW,302,0.0,0.0,89,0.00,,CLR,0.00,VWS V14.01,2013-07-10 10:00:00,
2013-07-10 05:04:00,74.6,71.5,30.07,WNW,302,0.0,0.0,90,0.00,,FEW013,0.00,VWS V14.01,2013-07-10 10:04:00,
2013-07-10 05:09:00,74.4,71.3,30.07,WNW,302,0.0,0.0,90,0.00,,FEW013,0.00,VWS V14.01,2013-07-10 10:09:00,
2013-07-10 05:10:00,74.6,71.2,30.07,WNW,302,0.0,0.0,89,0.00,,CLR,0.00,VWS V14.01,2013-07-10 10:10:00,
2013-07-10 05:14:00,74.4,71.3,30.07,WNW,302,0.0,0.0,90,0.00,,FEW013,0.00,VWS V14.01,2013-07-10 10:14:00,
2013-07-10 05:19:00,74.2,71.1,30.07,WNW,302,0.0,0.0,90,0.00,,FEW013,0.00,VWS V14.01,2013-07-10 10:19:00,
2013-07-10 05:20:00,74.4,71.3,30.07,WNW,302,0.0,0.0,90,0.00,,CLR,0.00,VWS V14.01,2013-07-10 10:20:00,
2013-07-10 05:24:00,74.2,71.1,30.07,WNW,302,0.0,0.0,90,0.00,,FEW013,0.00,VWS V14.01,2013-07-10 10:24:00,
2013-07-10 05:29:00,74.2,71.1,30.07,WNW,302,0.0,0.0,90,0.00,,FEW013,0.00,VWS V14.01,2013-07-10 10:29:00,
2013-07-10 05:30:00,74.2,71.1,30.07,WNW,302,0.0,0.0,90,0.00,,CLR,0.00,VWS V14.01,2013-07-10 10:30:00,
2013-07-10 05:34:00,74.1,71.3,30.07,WNW,302,0.0,0.0,91,0.00,,FEW013,0.00,VWS V14.01,2013-07-10 10:34:00,
2013-07-10 05:39:00,73.9,71.1,30.07,WNW,302,0.0,0.0,91,0.00,,FEW013,0.00,VWS V14.01,2013-07-10 10:39:00,
2013-07-10 05:40:00,74.2,71.1,30.07,WNW,302,0.0,0.0,90,0.00,,CLR,0.00,VWS V14.01,2013-07-10 10:40:00,
2013-07-10 05:44:00,73.9,71.1,30.07,WNW,302,0.0,0.0,91,0.00,,BKN013,0.00,VWS V14.01,2013-07-10 10:44:00,
2013-07-10 05:49:00,73.9,71.1,30.07,WNW,302,0.0,0.0,91,0.00,,BKN013,0.00,VWS V14.01,2013-07-10 10:49:00,
2013-07-10 05:50:00,74.1,71.3,30.07,WNW,302,0.0,0.0,91,0.00,,CLR,0.00,VWS V14.01,2013-07-10 10:50:00,
2013-07-10 05:54:00,73.7,70.9,30.07,WNW,302,0.0,0.0,91,0.00,,BKN013,0.00,VWS V14.01,2013-07-10 10:54:00,
2013-07-10 05:59:00,73.7,70.9,30.07,WNW,302,0.0,0.0,91,0.00,,BKN013,0.00,VWS V14.01,2013-07-10 10:59:00,
2013-07-10 06:00:00,73.9,71.1,30.07,WNW,302,0.0,0.0,91,0.00,,CLR,0.00,VWS V14.01,2013-07-10 11:00:00,
2013-07-10 06:04:00,73.7,70.9,30.07,WNW,302,0.0,0.0,91,0.00,,BKN011,0.00,VWS V14.01,2013-07-10 11:04:00,
2013-07-10 06:09:00,73.5,70.7,30.07,WNW,302,0.0,0.0,91,0.00,,BKN011,0.00,VWS V14.01,2013-07-10 11:09:00,
2013-07-10 06:10:00,73.7,70.9,30.07,WNW,302,0.0,0.0,91,0.00,,CLR,0.00,VWS V14.01,2013-07-10 11:10:00,
2013-07-10 06:14:00,73.5,70.7,30.07,WNW,302,0.0,0.0,91,0.00,,BKN011,0.00,VWS V14.01,2013-07-10 11:14:00,
2013-07-10 06:19:00,73.4,70.6,30.08,WNW,302,0.0,0.0,91,0.00,,BKN011,0.00,VWS V14.01,2013-07-10 11:19:00,
2013-07-10 06:20:00,73.5,70.7,30.07,WNW,302,0.0,0.0,91,0.00,,CLR,0.00,VWS V14.01,2013-07-10 11:20:00,
2013-07-10 06:24:00,73.4,70.9,30.08,WNW,302,0.0,0.0,92,0.00,,FEW011,0.00,VWS V14.01,2013-07-10 11:24:00,
2013-07-10 06:29:00,73.4,70.9,30.08,WNW,302,0.0,0.0,92,0.00,,FEW011,0.00,VWS V14.01,2013-07-10 11:29:00,
2013-07-10 06:30:00,73.4,70.9,30.08,WNW,302,0.0,0.0,92,0.00,,CLR,0.00,VWS V14.01,2013-07-10 11:30:00,
2013-07-10 06:34:00,73.2,70.7,30.08,WNW,302,0.0,0.0,92,0.00,,FEW011,0.00,VWS V14.01,2013-07-10 11:34:00,
2013-07-10 06:39:00,73.0,70.5,30.08,WNW,302,0.0,0.0,92,0.00,,FEW011,0.00,VWS V14.01,2013-07-10 11:39:00,
2013-07-10 06:40:00,73.4,70.9,30.08,WNW,302,0.0,0.0,92,0.00,,CLR,0.00,VWS V14.01,2013-07-10 11:40:00,
2013-07-10 06:44:00,73.0,70.5,30.08,WNW,302,0.0,0.0,92,0.00,,FEW011,0.00,VWS V14.01,2013-07-10 11:44:00,
2013-07-10 06:49:00,72.8,70.3,30.08,WNW,302,0.0,0.0,92,0.00,,FEW011,0.00,VWS V14.01,2013-07-10 11:49:00,
2013-07-10 06:50:00,73.2,70.7,30.08,WNW,302,0.0,0.0,92,0.00,,CLR,0.00,VWS V14.01,2013-07-10 11:50:00,
2013-07-10 06:54:00,72.8,70.3,30.08,WNW,302,0.0,0.0,92,0.00,,FEW009,0.00,VWS V14.01,2013-07-10 11:54:00,
2013-07-10 06:59:00,72.8,70.3,30.08,WNW,302,0.0,0.0,92,0.00,,FEW009,0.00,VWS V14.01,2013-07-10 11:59:00,
2013-07-10 07:00:00,72.8,70.3,30.08,WNW,302,0.0,0.0,92,0.00,,CLR,0.00,VWS V14.01,2013-07-10 12:00:00,
2013-07-10 07:04:00,72.8,70.3,30.08,WNW,302,0.0,0.0,92,0.00,,FEW009,0.00,VWS V14.01,2013-07-10 12:04:00,
2013-07-10 07:09:00,72.8,70.7,30.08,WNW,302,0.0,0.0,93,0.00,,FEW009,0.00,VWS V14.01,2013-07-10 12:09:00,
2013-07-10 07:10:00,72.8,70.3,30.08,WNW,302,0.0,0.0,92,0.00,,CLR,0.00,VWS V14.01,2013-07-10 12:10:00,
2013-07-10 07:14:00,72.8,70.3,30.08,WNW,302,0.0,0.0,92,0.00,,BKN010,0.00,VWS V14.01,2013-07-10 12:14:00,
2013-07-10 07:19:00,72.8,70.7,30.09,WNW,302,0.0,0.0,93,0.00,,BKN010,0.00,VWS V14.01,2013-07-10 12:19:00,
2013-07-10 07:20:00,72.8,70.3,30.08,WNW,302,0.0,0.0,92,0.00,,CLR,0.00,VWS V14.01,2013-07-10 12:20:00,
2013-07-10 07:24:00,73.0,70.9,30.09,WNW,302,0.0,0.0,93,0.00,,BKN010,0.00,VWS V14.01,2013-07-10 12:24:00,
2013-07-10 07:29:00,73.2,71.1,30.09,WNW,302,0.0,0.0,93,0.00,,BKN010,0.00,VWS V14.01,2013-07-10 12:29:00,
2013-07-10 07:30:00,72.8,70.7,30.09,WNW,302,0.0,0.0,93,0.00,,CLR,0.00,VWS V14.01,2013-07-10 12:30:00,
2013-07-10 07:34:00,73.2,71.1,30.09,WNW,302,0.0,0.0,93,0.00,,BKN010,0.00,VWS V14.01,2013-07-10 12:34:00,
2013-07-10 07:39:00,73.4,71.3,30.09,WNW,302,0.0,0.0,93,0.00,,BKN010,0.00,VWS V14.01,2013-07-10 12:39:00,
2013-07-10 07:40:00,73.0,70.9,30.09,WNW,302,0.0,0.0,93,0.00,,CLR,0.00,VWS V14.01,2013-07-10 12:40:00,
2013-07-10 07:44:00,73.5,71.4,30.09,WNW,302,0.0,0.0,93,0.00,,BKN010,0.00,VWS V14.01,2013-07-10 12:44:00,
2013-07-10 07:49:00,73.7,71.6,30.09,WNW,302,0.0,0.0,93,0.00,,BKN010,0.00,VWS V14.01,2013-07-10 12:49:00,
2013-07-10 07:50:00,73.4,71.3,30.09,WNW,302,0.0,0.0,93,0.00,,CLR,0.00,VWS V14.01,2013-07-10 12:50:00,
2013-07-10 07:54:00,73.9,71.8,30.09,WNW,302,0.0,0.0,93,0.00,,BKN010,0.00,VWS V14.01,2013-07-10 12:54:00,
2013-07-10 07:59:00,74.1,71.9,30.09,WNW,302,0.0,0.0,93,0.00,,BKN010,0.00,VWS V14.01,2013-07-10 12:59:00,
2013-07-10 08:00:00,73.7,71.6,30.09,WNW,302,0.0,0.0,93,0.00,,CLR,0.00,VWS V14.01,2013-07-10 13:00:00,
2013-07-10 08:04:00,74.4,72.2,30.10,WNW,302,0.0,0.0,93,0.00,,,0.00,VWS V14.01,2013-07-10 13:04:00,
2013-07-10 08:09:00,74.6,72.4,30.10,WNW,302,0.0,0.0,93,0.00,,,0.00,VWS V14.01,2013-07-10 13:09:00,
2013-07-10 08:10:00,73.9,71.8,30.09,WNW,302,0.0,0.0,93,0.00,,CLR,0.00,VWS V14.01,2013-07-10 13:10:00,
2013-07-10 08:14:00,74.9,72.7,30.10,WNW,302,0.0,0.0,93,0.00,,,0.00,VWS V14.01,2013-07-10 13:14:00,
2013-07-10 08:19:00,75.1,72.9,30.09,WNW,302,0.0,0.0,93,0.00,,,0.00,VWS V14.01,2013-07-10 13:19:00,
2013-07-10 08:20:00,74.4,72.2,30.10,WNW,302,0.0,0.0,93,0.00,,CLR,0.00,VWS V14.01,2013-07-10 13:20:00,
2013-07-10 08:24:00,75.5,73.3,30.09,WNW,302,0.0,0.0,93,0.00,,,0.00,VWS V14.01,2013-07-10 13:24:00,
2013-07-10 08:29:00,75.8,73.6,30.09,WNW,302,0.0,0.0,93,0.00,,,0.00,VWS V14.01,2013-07-10 13:29:00,
2013-07-10 08:30:00,74.9,72.7,30.09,WNW,302,0.0,0.0,93,0.00,,CLR,0.00,VWS V14.01,2013-07-10 13:30:00,
2013-07-10 08:34:00,76.3,74.1,30.09,WNW,302,0.0,0.0,93,0.00,,SCT012,0.00,VWS V14.01,2013-07-10 13:34:00,
2013-07-10 08:39:00,76.5,74.0,30.09,WNW,302,0.0,0.0,92,0.00,,SCT012,0.00,VWS V14.01,2013-07-10 13:39:00,
2013-07-10 08:40:00,75.6,73.4,30.09,WNW,302,0.0,0.0,93,0.00,,CLR,0.00,VWS V14.01,2013-07-10 13:40:00,
2013-07-10 08:44:00,76.7,73.9,30.09,WNW,302,0.0,0.0,91,0.00,,SCT012,0.00,VWS V14.01,2013-07-10 13:44:00,
2013-07-10 08:49:00,77.1,73.9,30.10,WNW,302,0.0,0.0,90,0.00,,SCT012,0.00,VWS V14.01,2013-07-10 13:49:00,
2013-07-10 08:50:00,76.3,73.8,30.09,WNW,302,0.0,0.0,92,0.00,,CLR,0.00,VWS V14.01,2013-07-10 13:50:00,
2013-07-10 08:54:00,77.4,73.9,30.10,WNW,302,0.0,0.0,89,0.00,,SCT012,0.00,VWS V14.01,2013-07-10 13:54:00,
2013-07-10 08:59:00,77.6,73.4,30.10,WNW,302,0.0,0.0,87,0.00,,SCT012,0.00,VWS V14.01,2013-07-10 13:59:00,
2013-07-10 09:00:00,76.9,73.8,30.10,WNW,302,0.0,0.0,90,0.00,,CLR,0.00,VWS V14.01,2013-07-10 14:00:00,
2013-07-10 09:04:00,77.8,73.3,30.10,WNW,302,0.0,0.0,86,0.00,,FEW018,0.00,VWS V14.01,2013-07-10 14:04:00,
2013-07-10 09:09:00,78.0,73.1,30.10,WNW,302,0.0,0.0,85,0.00,,FEW018,0.00,VWS V14.01,2013-07-10 14:09:00,
2013-07-10 09:10:00,77.6,73.8,30.10,WNW,302,0.0,0.0,88,0.00,,CLR,0.00,VWS V14.01,2013-07-10 14:10:00,
2013-07-10 09:14:00,78.3,73.4,30.10,WNW,302,0.0,0.0,85,0.00,,FEW009,0.00,VWS V14.01,2013-07-10 14:14:00,
2013-07-10 09:19:00,78.7,73.1,30.10,WNW,302,0.0,0.0,83,0.00,,FEW009,0.00,VWS V14.01,2013-07-10 14:19:00,
2013-07-10 09:20:00,77.8,72.9,30.10,WNW,302,0.0,0.0,85,0.00,,CLR,0.00,VWS V14.01,2013-07-10 14:20:00,
2013-07-10 09:24:00,79.3,73.0,30.10,WNW,302,0.0,0.0,81,0.00,,FEW009,0.00,VWS V14.01,2013-07-10 14:24:00,
2013-07-10 09:29:00,80.0,72.5,30.10,WNW,302,0.0,0.0,78,0.00,,FEW009,0.00,VWS V14.01,2013-07-10 14:29:00,
2013-07-10 09:30:00,78.5,73.3,30.10,WNW,302,0.0,0.0,84,0.00,,CLR,0.00,VWS V14.01,2013-07-10 14:30:00,
2013-07-10 09:34:00,80.7,72.4,30.10,WNW,302,0.0,0.0,76,0.00,,FEW009,0.00,VWS V14.01,2013-07-10 14:34:00,
2013-07-10 09:39:00,81.5,72.0,30.10,WNW,302,0.0,0.0,73,0.00,,FEW009,0.00,VWS V14.01,2013-07-10 14:39:00,
2013-07-10 09:40:00,79.6,72.9,30.10,WNW,302,0.0,0.0,80,0.00,,CLR,0.00,VWS V14.01,2013-07-10 14:40:00,
2013-07-10 09:44:00,82.1,71.8,30.10,SSW,208,0.0,0.0,71,0.00,,FEW009,0.00,VWS V14.01,2013-07-10 14:44:00,
2013-07-10 09:49:00,82.5,72.2,30.10,SSW,206,0.0,0.0,71,0.00,,FEW009,0.00,VWS V14.01,2013-07-10 14:49:00,
2013-07-10 09:50:00,81.1,72.0,30.10,WNW,302,0.0,0.0,74,0.00,,CLR,0.00,VWS V14.01,2013-07-10 14:50:00,
2013-07-10 09:54:00,82.9,72.5,30.10,SSW,209,0.0,0.0,71,0.00,,FEW009,0.00,VWS V14.01,2013-07-10 14:54:00,
2013-07-10 09:59:00,83.5,72.7,30.10,SSW,209,0.0,0.0,70,0.00,,FEW009,0.00,VWS V14.01,2013-07-10 14:59:00,
2013-07-10 10:00:00,82.5,72.2,30.10,SSW,208,0.0,0.0,71,0.00,,CLR,0.00,VWS V14.01,2013-07-10 15:00:00,
2013-07-10 10:04:00,83.8,72.6,30.09,SSW,209,0.0,0.0,69,0.00,,SCT015,0.00,VWS V14.01,2013-07-10 15:04:00,
2013-07-10 10:09:00,84.0,71.4,30.09,SE,142,0.0,0.0,66,0.00,,SCT015,0.00,VWS V14.01,2013-07-10 15:09:00,
2013-07-10 10:10:00,83.1,72.7,30.10,SSW,209,0.0,0.0,71,0.00,,CLR,0.00,VWS V14.01,2013-07-10 15:10:00,
2013-07-10 10:14:00,84.0,73.2,30.09,ENE,60,0.0,0.0,70,0.00,,SCT015,0.00,VWS V14.01,2013-07-10 15:14:00,
2013-07-10 10:19:00,84.0,71.4,30.09,ENE,60,0.0,0.0,66,0.00,,SCT015,0.00,VWS V14.01,2013-07-10 15:19:00,
2013-07-10 10:20:00,84.0,72.3,30.09,SSW,209,0.0,0.0,68,0.00,,CLR,0.00,VWS V14.01,2013-07-10 15:20:00,
2013-07-10 10:24:00,84.2,71.6,30.09,ENE,60,0.0,0.0,66,0.00,,SCT015,0.00,VWS V14.01,2013-07-10 15:24:00,
2013-07-10 10:29:00,84.2,71.6,30.09,ESE,102,0.0,0.0,66,0.00,,SCT015,0.00,VWS V14.01,2013-07-10 15:29:00,
2013-07-10 10:30:00,84.0,71.9,30.09,ENE,60,0.0,0.0,67,0.00,,CLR,0.00,VWS V14.01,2013-07-10 15:30:00,
2013-07-10 10:34:00,84.2,72.1,30.09,ESE,102,0.0,0.0,67,0.00,,BKN024,0.00,VWS V14.01,2013-07-10 15:34:00,
2013-07-10 10:39:00,84.2,70.7,30.09,ESE,122,0.0,0.0,64,0.00,,BKN024,0.00,VWS V14.01,2013-07-10 15:39:00,
2013-07-10 10:40:00,84.2,71.6,30.09,ENE,60,0.0,0.0,66,0.00,,CLR,0.00,VWS V14.01,2013-07-10 15:40:00,
2013-07-10 10:44:00,84.2,70.7,30.09,NE,39,0.0,0.0,64,0.00,,BKN024,0.00,VWS V14.01,2013-07-10 15:44:00,
2013-07-10 10:49:00,84.4,72.7,30.09,NE,39,0.0,0.0,68,0.00,,BKN024,0.00,VWS V14.01,2013-07-10 15:49:00,
2013-07-10 10:50:00,84.0,71.0,30.09,SE,129,0.0,0.0,65,0.00,,CLR,0.00,VWS V14.01,2013-07-10 15:50:00,
2013-07-10 10:54:00,85.2,72.1,30.09,NE,39,0.0,0.0,65,0.00,,BKN024,0.00,VWS V14.01,2013-07-10 15:54:00,
2013-07-10 10:59:00,85.8,70.8,30.09,NE,36,0.0,0.0,61,0.00,,BKN024,0.00,VWS V14.01,2013-07-10 15:59:00,
2013-07-10 11:00:00,84.2,70.7,30.09,NE,39,0.0,0.0,64,0.00,,CLR,0.00,VWS V14.01,2013-07-10 16:00:00,
2013-07-10 11:04:00,86.5,71.5,30.09,NE,42,0.0,0.0,61,0.00,,SCT024,0.00,VWS V14.01,2013-07-10 16:04:00,
2013-07-10 11:09:00,86.9,70.4,30.09,NE,42,0.0,0.0,58,0.00,,SCT024,0.00,VWS V14.01,2013-07-10 16:09:00,
2013-07-10 11:10:00,85.4,71.4,30.09,NE,36,0.0,0.0,63,0.00,,CLR,0.00,VWS V14.01,2013-07-10 16:10:00,
2013-07-10 11:14:00,87.1,70.5,30.09,NE,42,0.0,0.0,58,0.00,,SCT024,0.00,VWS V14.01,2013-07-10 16:14:00,
2013-07-10 11:19:00,87.3,71.2,30.09,NNE,22,0.0,0.0,59,0.00,,SCT024,0.00,VWS V14.01,2013-07-10 16:19:00,
2013-07-10 11:20:00,86.7,71.2,30.09,NE,42,0.0,0.0,60,0.00,,CLR,0.00,VWS V14.01,2013-07-10 16:20:00,
2013-07-10 11:24:00,87.3,70.7,30.09,NNE,22,0.0,0.0,58,0.00,,SCT024,0.00,VWS V14.01,2013-07-10 16:24:00,
2013-07-10 11:29:00,87.5,69.9,30.09,NNE,23,0.0,0.0,56,0.00,,SCT024,0.00,VWS V14.01,2013-07-10 16:29:00,
2013-07-10 11:30:00,87.3,71.2,30.09,NNE,22,0.0,0.0,59,0.00,,CLR,0.00,VWS V14.01,2013-07-10 16:30:00,
2013-07-10 11:34:00,87.9,71.3,30.08,NNE,22,0.0,0.0,58,0.00,,SCT024,0.00,VWS V14.01,2013-07-10 16:34:00,
2013-07-10 11:39:00,88.1,71.5,30.08,NNE,22,0.0,0.0,58,0.00,,SCT024,0.00,VWS V14.01,2013-07-10 16:39:00,
2013-07-10 11:40:00,87.5,70.4,30.09,NNE,22,0.0,0.0,57,0.00,,CLR,0.00,VWS V14.01,2013-07-10 16:40:00,
2013-07-10 11:44:00,88.1,72.0,30.08,NNE,22,0.0,0.0,59,0.00,,SCT024,0.00,VWS V14.01,2013-07-10 16:44:00,
2013-07-10 11:49:00,88.5,70.3,30.08,NNE,22,0.0,0.0,55,0.00,,SCT024,0.00,VWS V14.01,2013-07-10 16:49:00,
2013-07-10 11:50:00,88.1,72.0,30.08,NNE,22,0.0,0.0,59,0.00,,CLR,0.00,VWS V14.01,2013-07-10 16:50:00,
2013-07-10 11:54:00,88.8,71.6,30.08,NNE,22,0.0,0.0,57,0.00,,SCT024,0.00,VWS V14.01,2013-07-10 16:54:00,
2013-07-10 11:59:00,88.8,71.1,30.08,NNE,22,0.0,0.0,56,0.00,,SCT024,0.00,VWS V14.01,2013-07-10 16:59:00,
2013-07-10 12:00:00,88.3,72.2,30.08,NNE,22,0.0,0.0,59,0.00,,CLR,0.00,VWS V14.01,2013-07-10 17:00:00,
2013-07-10 12:04:00,89.0,72.3,30.07,NNE,22,0.0,0.0,58,0.00,,SCT024,0.00,VWS V14.01,2013-07-10 17:04:00,
2013-07-10 12:09:00,89.4,70.6,30.07,North,5,0.0,0.0,54,0.00,,SCT024,0.00,VWS V14.01,2013-07-10 17:09:00,
2013-07-10 12:10:00,88.8,71.6,30.08,NNE,22,0.0,0.0,57,0.00,,CLR,0.00,VWS V14.01,2013-07-10 17:10:00,
2013-07-10 12:14:00,90.0,70.0,30.07,North,5,0.0,0.0,52,0.00,,SCT024,0.00,VWS V14.01,2013-07-10 17:14:00,
2013-07-10 12:19:00,90.5,71.6,30.07,North,5,0.0,0.0,54,0.00,,SCT024,0.00,VWS V14.01,2013-07-10 17:19:00,
2013-07-10 12:20:00,89.2,71.5,30.07,NNE,22,0.0,0.0,56,0.00,,CLR,0.00,VWS V14.01,2013-07-10 17:20:00,
2013-07-10 12:24:00,90.9,70.8,30.07,North,5,0.0,0.0,52,0.00,,SCT024,0.00,VWS V14.01,2013-07-10 17:24:00,
2013-07-10 12:29:00,91.3,69.5,30.07,North,5,0.0,0.0,49,0.00,,SCT024,0.00,VWS V14.01,2013-07-10 17:29:00,
2013-07-10 12:30:00,90.2,70.8,30.07,North,5,0.0,0.0,53,0.00,,CLR,0.00,VWS V14.01,2013-07-10 17:30:00,
2013-07-10 12:34:00,92.0,70.7,30.07,North,5,0.0,0.0,50,0.00,,SCT024,0.00,VWS V14.01,2013-07-10 17:34:00,
2013-07-10 12:39:00,92.4,71.1,30.07,North,5,0.0,0.0,50,0.00,,SCT024,0.00,VWS V14.01,2013-07-10 17:39:00,
2013-07-10 12:40:00,91.1,69.3,30.07,North,5,0.0,0.0,49,0.00,,CLR,0.00,VWS V14.01,2013-07-10 17:40:00,
2013-07-10 12:44:00,92.7,70.2,30.07,WNW,283,0.0,0.0,48,0.00,,SCT024,0.00,VWS V14.01,2013-07-10 17:44:00,
2013-07-10 12:49:00,92.9,69.1,30.06,SW,236,0.0,0.0,46,0.00,,SCT024,0.00,VWS V14.01,2013-07-10 17:49:00,
2013-07-10 12:50:00,92.2,70.3,30.07,North,5,0.0,0.0,49,0.00,,CLR,0.00,VWS V14.01,2013-07-10 17:50:00,
2013-07-10 12:54:00,92.9,71.5,30.06,WSW,246,0.0,0.0,50,0.00,,SCT024,0.00,VWS V14.01,2013-07-10 17:54:00,
2013-07-10 12:59:00,92.9,67.8,30.06,NNW,345,0.0,0.0,44,0.00,,SCT024,0.00,VWS V14.01,2013-07-10 17:59:00,
2013-07-10 13:00:00,92.9,70.3,30.06,WNW,302,0.0,0.0,48,0.00,,CLR,0.00,VWS V14.01,2013-07-10 18:00:00,
2013-07-10 13:04:00,92.9,69.1,30.06,NNW,345,0.0,0.0,46,0.00,,SCT024,0.00,VWS V14.01,2013-07-10 18:04:00,
2013-07-10 13:09:00,92.9,69.1,30.06,NNW,345,0.0,0.0,46,0.00,,FEW042,0.00,VWS V14.01,2013-07-10 18:09:00,
2013-07-10 13:10:00,92.9,69.7,30.06,NNW,345,0.0,0.0,47,0.00,,CLR,0.00,VWS V14.01,2013-07-10 18:10:00,
2013-07-10 13:14:00,92.9,69.7,30.06,NNW,345,0.0,0.0,47,0.00,,FEW042,0.00,VWS V14.01,2013-07-10 18:14:00,
2013-07-10 13:19:00,93.8,71.2,30.05,NNW,345,0.0,0.0,48,0.00,,FEW042,0.00,VWS V14.01,2013-07-10 18:19:00,
2013-07-10 13:20:00,92.9,70.3,30.06,NNW,345,0.0,0.0,48,0.00,,CLR,0.00,VWS V14.01,2013-07-10 18:20:00,
2013-07-10 13:24:00,94.0,68.8,30.05,NNW,347,0.0,0.0,44,0.00,,FEW042,0.00,VWS V14.01,2013-07-10 18:24:00,
2013-07-10 13:29:00,93.8,69.9,30.05,NNW,347,0.0,0.0,46,0.00,,FEW042,0.00,VWS V14.01,2013-07-10 18:29:00,
2013-07-10 13:30:00,93.3,71.3,30.05,NNW,345,0.0,0.0,49,0.00,,CLR,0.00,VWS V14.01,2013-07-10 18:30:00,
2013-07-10 13:34:00,93.5,69.0,30.04,NNW,347,0.0,0.0,45,0.00,,FEW042,0.00,VWS V14.01,2013-07-10 18:34:00,
2013-07-10 13:39:00,93.1,70.5,30.04,NNW,347,0.0,0.0,48,0.00,,FEW042,0.00,VWS V14.01,2013-07-10 18:39:00,
2013-07-10 13:40:00,93.8,69.3,30.05,NNW,347,0.0,0.0,45,0.00,,CLR,0.00,VWS V14.01,2013-07-10 18:40:00,
2013-07-10 13:44:00,92.2,70.3,30.04,NNW,347,0.0,0.0,49,0.00,,FEW042,0.00,VWS V14.01,2013-07-10 18:44:00,
2013-07-10 13:49:00,92.2,70.3,30.03,NNW,330,0.0,0.0,49,0.00,,FEW042,0.00,VWS V14.01,2013-07-10 18:49:00,
2013-07-10 13:50:00,93.5,70.3,30.04,NNW,347,0.0,0.0,47,0.00,,CLR,0.00,VWS V14.01,2013-07-10 18:50:00,
2013-07-10 13:54:00,92.9,67.1,30.03,WNW,295,0.0,0.0,43,0.00,,FEW042,0.00,VWS V14.01,2013-07-10 18:54:00,
2013-07-10 13:59:00,93.5,69.0,30.03,WNW,297,0.0,0.0,45,0.00,,FEW042,0.00,VWS V14.01,2013-07-10 18:59:00,
2013-07-10 14:00:00,92.2,70.3,30.03,NNW,347,0.0,0.0,49,0.00,,CLR,0.00,VWS V14.01,2013-07-10 19:00:00,
2013-07-10 14:04:00,93.8,67.9,30.03,WNW,296,0.0,0.0,43,0.00,,FEW050,0.00,VWS V14.01,2013-07-10 19:04:00,
2013-07-10 14:09:00,94.4,67.8,30.03,WNW,296,0.0,0.0,42,0.00,,FEW050,0.00,VWS V14.01,2013-07-10 19:09:00,
2013-07-10 14:10:00,93.1,68.0,30.03,WNW,296,0.0,0.0,44,0.00,,CLR,0.00,VWS V14.01,2013-07-10 19:10:00,
2013-07-10 14:14:00,94.4,67.1,30.03,WNW,296,0.0,0.0,41,0.00,,FEW050,0.00,VWS V14.01,2013-07-10 19:14:00,
2013-07-10 14:19:00,94.6,70.0,30.02,WNW,296,0.0,0.0,45,0.00,,FEW050,0.00,VWS V14.01,2013-07-10 19:19:00,
2013-07-10 14:20:00,94.0,68.1,30.03,WNW,296,0.0,0.0,43,0.00,,CLR,0.00,VWS V14.01,2013-07-10 19:20:00,
2013-07-10 14:24:00,94.6,68.7,30.02,WNW,296,0.0,0.0,43,0.00,,FEW050,0.00,VWS V14.01,2013-07-10 19:24:00,
2013-07-10 14:29:00,94.6,68.0,30.02,WNW,296,0.0,0.0,42,0.00,,FEW050,0.00,VWS V14.01,2013-07-10 19:29:00,
2013-07-10 14:30:00,94.4,69.8,30.02,WNW,296,0.0,0.0,45,0.00,,CLR,0.00,VWS V14.01,2013-07-10 19:30:00,
2013-07-10 14:34:00,94.0,68.8,30.01,NE,40,0.0,0.0,44,0.00,,FEW050,0.00,VWS V14.01,2013-07-10 19:34:00,
2013-07-10 14:39:00,94.0,67.4,30.01,NE,40,0.0,0.0,42,0.00,,FEW050,0.00,VWS V14.01,2013-07-10 19:39:00,
2013-07-10 14:40:00,94.6,67.3,30.02,WNW,296,0.0,0.0,41,0.00,,CLR,0.00,VWS V14.01,2013-07-10 19:40:00,
2013-07-10 14:44:00,94.2,68.3,30.01,North,9,0.0,0.0,43,0.00,,FEW050,0.00,VWS V14.01,2013-07-10 19:44:00,
2013-07-10 14:49:00,94.4,67.8,30.01,North,9,0.0,0.0,42,0.00,,FEW050,0.00,VWS V14.01,2013-07-10 19:49:00,
2013-07-10 14:50:00,93.8,69.9,30.01,NE,40,0.0,0.0,46,0.00,,CLR,0.00,VWS V14.01,2013-07-10 19:50:00,
2013-07-10 14:54:00,94.2,69.0,30.01,North,9,0.0,0.0,44,0.00,,FEW050,0.00,VWS V14.01,2013-07-10 19:54:00,
2013-07-10 14:59:00,94.0,65.3,30.01,North,5,0.0,0.0,39,0.00,,FEW050,0.00,VWS V14.01,2013-07-10 19:59:00,
2013-07-10 15:00:00,94.4,69.1,30.01,North,9,0.0,0.0,44,0.00,,CLR,0.00,VWS V14.01,2013-07-10 20:00:00,
2013-07-10 15:04:00,94.0,69.4,30.00,North,5,0.0,0.0,45,0.00,,SCT060,0.00,VWS V14.01,2013-07-10 20:04:00,
2013-07-10 15:09:00,94.0,68.8,30.00,North,5,0.0,0.0,44,0.00,,SCT060,0.00,VWS V14.01,2013-07-10 20:09:00,
2013-07-10 15:10:00,94.2,66.9,30.01,North,9,0.0,0.0,41,0.00,,CLR,0.00,VWS V14.01,2013-07-10 20:10:00,
2013-07-10 15:14:00,94.0,68.8,30.00,North,5,0.0,0.0,44,0.00,,SCT060,0.00,VWS V14.01,2013-07-10 20:14:00,
2013-07-10 15:19:00,94.0,67.4,30.00,North,5,0.0,0.0,42,0.00,,SCT060,0.00,VWS V14.01,2013-07-10 20:19:00,
2013-07-10 15:20:00,94.0,65.3,30.00,North,5,0.0,0.0,39,0.00,,CLR,0.00,VWS V14.01,2013-07-10 20:20:00,
2013-07-10 15:24:00,94.0,66.7,30.00,North,5,0.0,0.0,41,0.00,,SCT060,0.00,VWS V14.01,2013-07-10 20:24:00,
2013-07-10 15:29:00,94.4,67.8,30.00,North,5,0.0,0.0,42,0.00,,SCT060,0.00,VWS V14.01,2013-07-10 20:29:00,
2013-07-10 15:30:00,94.0,67.4,30.00,North,5,0.0,0.0,42,0.00,,CLR,0.00,VWS V14.01,2013-07-10 20:30:00,
2013-07-10 15:34:00,94.0,68.8,30.00,North,5,0.0,0.0,44,0.00,,SCT060,0.00,VWS V14.01,2013-07-10 20:34:00,
2013-07-10 15:39:00,93.8,64.4,30.00,North,5,0.0,0.0,38,0.00,,SCT060,0.00,VWS V14.01,2013-07-10 20:39:00,
2013-07-10 15:40:00,94.2,66.9,30.00,North,5,0.0,0.0,41,0.00,,CLR,0.00,VWS V14.01,2013-07-10 20:40:00,
2013-07-10 15:44:00,94.0,66.0,30.00,North,5,0.0,0.0,40,0.00,,SCT060,0.00,VWS V14.01,2013-07-10 20:44:00,
2013-07-10 15:49:00,94.2,65.5,29.99,North,9,0.0,0.0,39,0.00,,SCT060,0.00,VWS V14.01,2013-07-10 20:49:00,
2013-07-10 15:50:00,93.8,67.9,30.00,North,5,0.0,0.0,43,0.00,,CLR,0.00,VWS V14.01,2013-07-10 20:50:00,
2013-07-10 15:54:00,94.0,66.7,29.99,North,9,0.0,0.0,41,0.00,,SCT060,0.00,VWS V14.01,2013-07-10 20:54:00,
2013-07-10 15:59:00,94.0,66.7,29.99,North,9,0.0,0.0,41,0.00,,SCT060,0.00,VWS V14.01,2013-07-10 20:59:00,
2013-07-10 16:00:00,94.0,65.3,29.99,North,5,0.0,0.0,39,0.00,,CLR,0.00,VWS V14.01,2013-07-10 21:00:00,
2013-07-10 16:04:00,94.0,66.7,29.98,North,9,0.0,0.0,41,0.00,,FEW060,0.00,VWS V14.01,2013-07-10 21:04:00,
2013-07-10 16:10:00,93.5,67.0,29.98,North,9,0.0,0.0,42,0.00,,FEW060,0.00,VWS V14.01,2013-07-10 21:10:00,
2013-07-10 16:15:00,93.5,66.3,29.98,North,9,0.0,0.0,41,0.00,,FEW060,0.00,VWS V14.01,2013-07-10 21:15:00,
2013-07-10 16:20:00,93.5,67.0,29.98,North,9,0.0,0.0,42,0.00,,FEW060,0.00,VWS V14.01,2013-07-10 21:20:00,
2013-07-10 16:25:00,93.8,64.4,29.98,North,351,0.0,0.0,38,0.00,,FEW060,0.00,VWS V14.01,2013-07-10 21:25:00,
2013-07-10 16:30:00,93.8,65.1,29.98,WNW,288,0.0,0.0,39,0.00,,FEW060,0.00,VWS V14.01,2013-07-10 21:30:00,
2013-07-10 16:35:00,93.8,65.1,29.97,WNW,288,0.0,0.0,39,0.00,,FEW060,0.00,VWS V14.01,2013-07-10 21:35:00,
2013-07-10 16:40:00,93.8,65.8,29.97,WNW,288,0.0,0.0,40,0.00,,FEW060,0.00,VWS V14.01,2013-07-10 21:40:00,
2013-07-10 16:45:00,93.5,64.8,29.97,WNW,288,0.0,0.0,39,0.00,,FEW060,0.00,VWS V14.01,2013-07-10 21:45:00,
2013-07-10 16:50:00,93.8,63.6,29.96,WNW,286,0.0,0.0,37,0.00,,FEW060,0.00,VWS V14.01,2013-07-10 21:50:00,
2013-07-10 16:55:00,94.2,66.2,29.96,WNW,286,0.0,0.0,40,0.00,,FEW060,0.00,VWS V14.01,2013-07-10 21:55:00,
2013-07-10 17:00:00,94.2,61.6,29.96,NW,311,0.0,0.0,34,0.00,,FEW060,0.00,VWS V14.01,2013-07-10 22:00:00,
2013-07-10 17:05:00,94.2,64.7,29.95,NW,311,0.0,0.0,38,0.00,,FEW075,0.00,VWS V14.01,2013-07-10 22:05:00,
2013-07-10 17:10:00,94.2,64.7,29.95,NW,312,0.0,0.0,38,0.00,,FEW075,0.00,VWS V14.01,2013-07-10 22:10:00,
2013-07-10 17:15:00,94.2,64.7,29.95,NW,312,0.0,0.0,38,0.00,,FEW075,0.00,VWS V14.01,2013-07-10 22:15:00,
2013-07-10 17:20:00,94.4,64.9,29.95,NW,313,0.0,0.0,38,0.00,,FEW075,0.00,VWS V14.01,2013-07-10 22:20:00,
2013-07-10 17:25:00,94.6,65.1,29.95,NW,313,0.0,0.0,38,0.00,,FEW075,0.00,VWS V14.01,2013-07-10 22:25:00,
2013-07-10 17:30:00,94.6,65.8,29.95,NW,313,0.0,0.0,39,0.00,,FEW075,0.00,VWS V14.01,2013-07-10 22:30:00,
2013-07-10 17:35:00,94.6,61.1,29.94,NW,311,0.0,0.0,33,0.00,,FEW075,0.00,VWS V14.01,2013-07-10 22:35:00,
2013-07-10 17:40:00,94.6,62.7,29.94,NW,310,0.0,0.0,35,0.00,,FEW075,0.00,VWS V14.01,2013-07-10 22:40:00,
2013-07-10 17:45:00,94.6,65.8,29.94,NW,310,0.0,0.0,39,0.00,,FEW075,0.00,VWS V14.01,2013-07-10 22:45:00,
2013-07-10 17:50:00,94.4,62.5,29.93,NW,310,0.0,0.0,35,0.00,,FEW075,0.00,VWS V14.01,2013-07-10 22:50:00,
2013-07-10 17:55:00,94.4,63.4,29.93,NW,310,0.0,0.0,36,0.00,,FEW075,0.00,VWS V14.01,2013-07-10 22:55:00,
2013-07-10 18:00:00,94.4,61.7,29.93,NW,310,0.0,0.0,34,0.00,,FEW075,0.00,VWS V14.01,2013-07-10 23:00:00,
2013-07-10 18:05:00,94.6,67.3,29.92,NW,310,0.0,0.0,41,0.00,,FEW075,0.00,VWS V14.01,2013-07-10 23:05:00,
2013-07-10 18:10:00,94.6,65.1,29.92,SSW,194,0.0,0.0,38,0.00,,FEW075,0.00,VWS V14.01,2013-07-10 23:10:00,
2013-07-10 18:15:00,94.6,68.0,29.92,SSW,194,0.0,0.0,42,0.00,,FEW075,0.00,VWS V14.01,2013-07-10 23:15:00,
2013-07-10 18:20:00,94.4,67.8,29.92,West,265,0.0,0.0,42,0.00,,FEW075,0.00,VWS V14.01,2013-07-10 23:20:00,
2013-07-10 18:25:00,94.0,67.4,29.92,WNW,294,0.0,0.0,42,0.00,,FEW075,0.00,VWS V14.01,2013-07-10 23:25:00,
2013-07-10 18:30:00,93.3,66.8,29.92,NW,305,0.0,0.0,42,0.00,,FEW075,0.00,VWS V14.01,2013-07-10 23:30:00,
2013-07-10 18:35:00,92.9,67.8,29.92,NW,304,0.0,0.0,44,0.00,,FEW075,0.00,VWS V14.01,2013-07-10 23:35:00,
2013-07-10 18:40:00,92.4,67.3,29.92,NW,304,0.0,0.0,44,0.00,,FEW075,0.00,VWS V14.01,2013-07-10 23:40:00,
2013-07-10 18:45:00,92.0,67.6,29.92,NW,304,0.0,0.0,45,0.00,,FEW075,0.00,VWS V14.01,2013-07-10 23:45:00,
2013-07-10 18:50:00,91.6,67.9,29.92,NW,304,0.0,0.0,46,0.00,,FEW075,0.00,VWS V14.01,2013-07-10 23:50:00,
2013-07-10 18:55:00,91.3,67.0,29.92,West,262,0.0,0.0,45,0.00,,FEW075,0.00,VWS V14.01,2013-07-10 23:55:00,
2013-07-10 19:00:00,91.6,69.2,29.92,SSW,194,0.0,0.0,48,0.00,,FEW075,0.00,VWS V14.01,2013-07-11 00:00:00,
2013-07-10 19:05:00,91.3,68.3,29.92,SW,233,0.0,0.0,47,0.00,,CLR,0.00,VWS V14.01,2013-07-11 00:05:00,
2013-07-10 19:10:00,91.1,68.7,29.92,SW,233,0.0,0.0,48,0.00,,CLR,0.00,VWS V14.01,2013-07-11 00:10:00,
2013-07-10 19:15:00,90.9,68.5,29.92,SW,233,0.0,0.0,48,0.00,,CLR,0.00,VWS V14.01,2013-07-11 00:15:00,
2013-07-10 19:20:00,90.5,68.2,29.92,SW,233,0.0,0.0,48,0.00,,CLR,0.00,VWS V14.01,2013-07-11 00:20:00,
2013-07-10 19:25:00,90.0,68.3,29.92,West,276,0.0,0.0,49,0.00,,CLR,0.00,VWS V14.01,2013-07-11 00:25:00,
2013-07-10 19:30:00,89.8,68.1,29.92,WNW,283,0.0,0.0,49,0.00,,CLR,0.00,VWS V14.01,2013-07-11 00:30:00,
2013-07-10 19:35:00,89.6,67.9,29.92,West,273,0.0,0.0,49,0.00,,CLR,0.00,VWS V14.01,2013-07-11 00:35:00,
2013-07-10 19:40:00,89.4,68.3,29.92,West,280,0.0,0.0,50,0.00,,CLR,0.00,VWS V14.01,2013-07-11 00:40:00,
2013-07-10 19:45:00,89.4,68.3,29.92,WNW,284,0.0,0.0,50,0.00,,CLR,0.00,VWS V14.01,2013-07-11 00:45:00,
2013-07-10 19:50:00,89.4,67.7,29.92,WNW,282,0.0,0.0,49,0.00,,CLR,0.00,VWS V14.01,2013-07-11 00:50:00,
2013-07-10 19:55:00,89.2,68.7,29.92,WNW,282,0.0,0.0,51,0.00,,CLR,0.00,VWS V14.01,2013-07-11 00:55:00,
2013-07-10 20:00:00,89.2,68.2,29.92,West,281,0.0,0.0,50,0.00,,CLR,0.00,VWS V14.01,2013-07-11 01:00:00,
2013-07-10 20:05:00,89.0,69.1,29.93,West,281,0.0,0.0,52,0.00,,CLR,0.00,VWS V14.01,2013-07-11 01:05:00,
2013-07-10 20:10:00,88.8,68.9,29.93,WNW,294,0.0,0.0,52,0.00,,CLR,0.00,VWS V14.01,2013-07-11 01:10:00,
2013-07-10 20:15:00,88.5,68.6,29.93,WNW,295,0.0,0.0,52,0.00,,CLR,0.00,VWS V14.01,2013-07-11 01:15:00,
2013-07-10 20:20:00,88.3,68.5,29.93,WNW,294,0.0,0.0,52,0.00,,CLR,0.00,VWS V14.01,2013-07-11 01:20:00,
2013-07-10 20:25:00,88.1,68.3,29.93,WNW,294,0.0,0.0,52,0.00,,CLR,0.00,VWS V14.01,2013-07-11 01:25:00,
2013-07-10 20:30:00,87.9,68.1,29.93,WNW,296,0.0,0.0,52,0.00,,CLR,0.00,VWS V14.01,2013-07-11 01:30:00,
2013-07-10 20:35:00,87.7,68.5,29.93,WNW,296,0.0,0.0,53,0.00,,CLR,0.00,VWS V14.01,2013-07-11 01:35:00,
2013-07-10 20:40:00,87.5,67.7,29.93,WNW,296,0.0,0.0,52,0.00,,CLR,0.00,VWS V14.01,2013-07-11 01:40:00,
2013-07-10 20:45:00,87.5,68.3,29.93,WNW,292,0.0,0.0,53,0.00,,CLR,0.00,VWS V14.01,2013-07-11 01:45:00,
2013-07-10 20:50:00,87.3,67.5,29.94,NW,319,0.0,0.0,52,0.00,,CLR,0.00,VWS V14.01,2013-07-11 01:50:00,
2013-07-10 20:55:00,86.9,67.7,29.94,NW,319,0.0,0.0,53,0.00,,CLR,0.00,VWS V14.01,2013-07-11 01:55:00,
2013-07-10 21:00:00,86.7,67.5,29.94,NW,319,0.0,0.0,53,0.00,,CLR,0.00,VWS V14.01,2013-07-11 02:00:00,
2013-07-10 21:05:00,86.5,67.9,29.94,NW,319,0.0,0.0,54,0.00,,CLR,0.00,VWS V14.01,2013-07-11 02:05:00,
2013-07-10 21:10:00,86.2,67.6,29.94,NW,317,0.0,0.0,54,0.00,,CLR,0.00,VWS V14.01,2013-07-11 02:10:00,
2013-07-10 21:15:00,86.0,68.0,29.94,WNW,295,0.0,0.0,55,0.00,,CLR,0.00,VWS V14.01,2013-07-11 02:15:00,
2013-07-10 21:20:00,85.8,67.8,29.94,WNW,295,0.0,0.0,55,0.00,,CLR,0.00,VWS V14.01,2013-07-11 02:20:00,
2013-07-10 21:25:00,85.4,67.4,29.94,WNW,295,0.0,0.0,55,0.00,,CLR,0.00,VWS V14.01,2013-07-11 02:25:00,
2013-07-10 21:30:00,85.2,67.8,29.94,WNW,295,0.0,0.0,56,0.00,,CLR,0.00,VWS V14.01,2013-07-11 02:30:00,
2013-07-10 21:35:00,85.2,67.8,29.95,WNW,295,0.0,0.0,56,0.00,,CLR,0.00,VWS V14.01,2013-07-11 02:35:00,
2013-07-10 21:40:00,85.0,67.6,29.95,WNW,295,0.0,0.0,56,0.00,,CLR,0.00,VWS V14.01,2013-07-11 02:40:00,
2013-07-10 21:45:00,84.8,67.4,29.95,WNW,295,0.0,0.0,56,0.00,,CLR,0.00,VWS V14.01,2013-07-11 02:45:00,
2013-07-10 21:50:00,84.6,67.7,29.95,WNW,295,0.0,0.0,57,0.00,,CLR,0.00,VWS V14.01,2013-07-11 02:50:00,
2013-07-10 21:55:00,84.4,67.5,29.95,WNW,295,0.0,0.0,57,0.00,,CLR,0.00,VWS V14.01,2013-07-11 02:55:00,
2013-07-10 22:00:00,84.2,68.3,29.95,WNW,295,0.0,0.0,59,0.00,,CLR,0.00,VWS V14.01,2013-07-11 03:00:00,
2013-07-10 22:05:00,84.0,68.1,29.96,WNW,295,0.0,0.0,59,0.00,,CLR,0.00,VWS V14.01,2013-07-11 03:05:00,
2013-07-10 22:10:00,83.8,68.0,29.96,WNW,295,0.0,0.0,59,0.00,,CLR,0.00,VWS V14.01,2013-07-11 03:10:00,
2013-07-10 22:15:00,83.6,67.8,29.96,WNW,295,0.0,0.0,59,0.00,,CLR,0.00,VWS V14.01,2013-07-11 03:15:00,
2013-07-10 22:20:00,83.6,67.8,29.97,WNW,295,0.0,0.0,59,0.00,,CLR,0.00,VWS V14.01,2013-07-11 03:20:00,
2013-07-10 22:25:00,83.5,68.2,29.97,WNW,295,0.0,0.0,60,0.00,,CLR,0.00,VWS V14.01,2013-07-11 03:25:00,
2013-07-10 22:30:00,83.3,67.5,29.97,NW,305,0.0,0.0,59,0.00,,CLR,0.00,VWS V14.01,2013-07-11 03:30:00,
2013-07-10 22:35:00,83.3,67.5,29.97,NW,305,0.0,0.0,59,0.00,,CLR,0.00,VWS V14.01,2013-07-11 03:35:00,
2013-07-10 22:40:00,83.3,68.0,29.97,NW,305,0.0,0.0,60,0.00,,CLR,0.00,VWS V14.01,2013-07-11 03:40:00,
2013-07-10 22:45:00,83.3,68.0,29.97,NW,305,0.0,0.0,60,0.00,,CLR,0.00,VWS V14.01,2013-07-11 03:45:00,
2013-07-10 22:50:00,83.1,68.3,29.98,NW,305,0.0,0.0,61,0.00,,CLR,0.00,VWS V14.01,2013-07-11 03:50:00,
2013-07-10 22:55:00,82.9,67.6,29.98,NW,305,0.0,0.0,60,0.00,,CLR,0.00,VWS V14.01,2013-07-11 03:55:00,
2013-07-10 23:00:00,82.9,68.1,29.98,NW,305,0.0,0.0,61,0.00,,CLR,0.00,VWS V14.01,2013-07-11 04:00:00,
2013-07-10 23:01:00,82.9,68.1,29.98,NW,305,0.0,0.0,61,0.00,,CLR,0.00,VWS V14.01,2013-07-11 04:01:00,
2013-07-10 23:06:00,82.7,67.9,29.98,NW,325,0.0,0.0,61,0.00,,CLR,0.00,VWS V14.01,2013-07-11 04:06:00,
2013-07-10 23:10:00,82.9,67.6,29.98,NW,305,0.0,0.0,60,0.00,,CLR,0.00,VWS V14.01,2013-07-11 04:10:00,
2013-07-10 23:11:00,82.7,67.9,29.98,WNW,290,0.0,0.0,61,0.00,,CLR,0.00,VWS V14.01,2013-07-11 04:11:00,
2013-07-10 23:16:00,82.7,67.9,29.98,WNW,290,0.0,0.0,61,0.00,,CLR,0.00,VWS V14.01,2013-07-11 04:16:00,
2013-07-10 23:20:00,82.7,67.9,29.98,NW,325,0.0,0.0,61,0.00,,CLR,0.00,VWS V14.01,2013-07-11 04:20:00,
2013-07-10 23:21:00,82.7,67.9,29.98,WNW,290,0.0,0.0,61,0.00,,CLR,0.00,VWS V14.01,2013-07-11 04:21:00,
2013-07-10 23:26:00,82.5,68.2,29.98,WNW,290,0.0,0.0,62,0.00,,CLR,0.00,VWS V14.01,2013-07-11 04:26:00,
2013-07-10 23:30:00,82.7,67.9,29.98,WNW,290,0.0,0.0,61,0.00,,CLR,0.00,VWS V14.01,2013-07-11 04:30:00,
2013-07-10 23:31:00,82.3,68.5,29.99,WNW,290,0.0,0.0,63,0.00,,CLR,0.00,VWS V14.01,2013-07-11 04:31:00,
2013-07-10 23:36:00,82.1,68.3,29.99,WNW,290,0.0,0.0,63,0.00,,CLR,0.00,VWS V14.01,2013-07-11 04:36:00,
2013-07-10 23:40:00,82.5,68.2,29.98,WNW,290,0.0,0.0,62,0.00,,CLR,0.00,VWS V14.01,2013-07-11 04:40:00,
2013-07-10 23:41:00,81.9,68.5,29.99,WNW,290,0.0,0.0,64,0.00,,CLR,0.00,VWS V14.01,2013-07-11 04:41:00,
2013-07-10 23:46:00,81.7,68.3,30.00,WNW,290,0.0,0.0,64,0.00,,CLR,0.00,VWS V14.01,2013-07-11 04:46:00,
2013-07-10 23:50:00,82.1,68.3,29.99,WNW,290,0.0,0.0,63,0.00,,CLR,0.00,VWS V14.01,2013-07-11 04:50:00,
2013-07-10 23:51:00,81.5,68.2,30.00,WNW,290,0.0,0.0,64,0.00,,CLR,0.00,VWS V14.01,2013-07-11 04:51:00,
2013-07-10 23:56:00,81.3,68.4,30.00,WNW,290,0.0,0.0,65,0.00,,CLR,0.00,VWS V14.01,2013-07-11 04:56:00,